Terminal Aerodrome Forecast
Issued by NWS

Home | Current Version | Previous Version | Graphics & Text | Print | Product List | Glossary On
Versions: 1 2 3 4 5 6 7 8 9 10 11 12 13 14 15 16 17
000
FTUS43 KICT 210900 AAA
TAFHUT
TAF AMD
KHUT 210920Z 2109/2206 18003KT 5SM BR BKN100
     FM211100 19003KT 4SM BR BKN013
     FM211400 33004KT P6SM BKN025
     FM211700 36007KT P6SM BKN040
     FM212000 36007KT P6SM BKN070=

USA.gov is the U.S. government's official web portal to all federal, state and local government web resources and services.